EW7714 Weather Reports


time (UTC)temp
F
wind
direction
speed
knots
gust
knots
rain 1hr
in
rain 24hr
in
rain mn
in
humidity
%
barometer
mb
20260504023106 61 281 0.0 0.0 0.00 0.00 0.00 79 1018.5
20260504022004 61 281 0.0 0.0 0.00 0.00 0.00 77 1018.6
20260504021609 62 281 0.0 0.0 0.00 0.00 0.00 76 1018.5
20260504021004 62 281 0.0 0.0 0.00 0.00 0.00 73 1018.4
20260504020006 62 281 0.0 0.0 0.00 0.00 0.00 72 1018.3
20260504015004 63 281 0.0 0.9 0.00 0.00 0.00 72 1018.3
20260504014600 63 281 0.0 0.9 0.00 0.00 0.00 71 1018.2
20260504014005 64 281 0.9 3.5 0.00 0.00 0.00 70 1018.2
20260504013100 64 281 0.9 4.3 0.00 0.00 0.00 69 1018.0
20260504013004 64 300 0.0 1.7 0.00 0.00 0.00 69 1018.0
20260504012004 64 300 0.0 0.9 0.00 0.00 0.00 69 1017.9
20260504011559 65 300 0.0 1.7 0.00 0.00 0.00 70 1017.8
20260504011004 65 300 0.9 2.6 0.00 0.00 0.00 66 1017.8
20260504010100 66 319 0.0 1.7 0.00 0.00 0.00 67 1017.6
20260504010005 66 319 0.9 1.7 0.00 0.00 0.00 66 1017.7
20260504005004 67 320 0.0 2.6 0.00 0.00 0.00 65 1017.6
20260504004559 67 321 0.0 0.9 0.00 0.00 0.00 64 1017.6
20260504004004 68 321 0.0 1.7 0.00 0.00 0.00 62 1017.6
20260504003059 69 321 0.0 1.7 0.00 0.00 0.00 56 1017.3
20260504003005 69 321 0.0 0.0 0.00 0.00 0.00 56 1017.4
20260504002004 70 321 0.0 0.0 0.00 0.00 0.00 55 1017.3
20260504001559 70 321 0.0 0.0 0.00 0.00 0.00 53 1017.1
20260504001003 70 321 0.0 0.0 0.00 0.00 0.00 52 1017.1
20260504000137 71 321 0.0 0.0 0.00 0.00 0.00 52 1017.1
20260504000005 71 321 0.0 0.0 0.00 0.00 0.00 52 1017.1
20260503235004 71 321 0.0 0.9 0.00 0.00 0.00 52 1017.1
20260503234603 72 321 0.0 0.9 0.00 0.00 0.00 52 1017.1
20260503234004 72 321 0.0 0.9 0.00 0.00 0.00 50 1017.2
20260503233101 73 321 0.0 1.7 0.00 0.00 0.00 48 1017.2
20260503233005 73 321 0.0 1.7 0.00 0.00 0.00 47 1017.2
20260503232004 73 321 0.0 0.9 0.00 0.00 0.00 49 1017.4
20260503231559 73 321 0.0 0.9 0.00 0.00 0.00 45 1017.3
20260503231005 74 321 0.9 1.7 0.00 0.00 0.00 47 1017.4
20260503230100 74 321 0.0 2.6 0.00 0.00 0.00 43 1017.3
20260503230006 74 321 0.9 2.6 0.00 0.00 0.00 43 1017.4
20260503225004 74 319 0.9 1.7 0.00 0.00 0.00 44 1017.4
20260503224601 74 319 0.0 3.5 0.00 0.00 0.00 45 1017.3
20260503224004 74 319 0.9 3.5 0.00 0.00 0.00 43 1017.5
20260503223100 75 355 0.0 1.7 0.00 0.00 0.00 48 1017.3
20260503223004 75 355 0.0 1.7 0.00 0.00 0.00 48 1017.4
20260503221602 76 355 0.9 2.6 0.00 0.00 0.00 41 1017.4
20260503221004 76 341 0.9 2.6 0.00 0.00 0.00 40 1017.5
20260503220059 78 355 0.9 2.6 0.00 0.00 0.00 39 1017.5
20260503220004 78 360 0.9 2.6 0.00 0.00 0.00 38 1017.5
20260503215004 77 24 0.9 2.6 0.00 0.00 0.00 40 1017.6
20260503214600 77 24 0.0 5.2 0.00 0.00 0.00 40 1017.6
20260503214004 77 331 0.9 3.5 0.00 0.00 0.00 41 1017.6
20260503213059 78 319 0.9 3.5 0.00 0.00 0.00 40 1017.7
20260503211604 78 330 0.9 2.6 0.00 0.00 0.00 38 1017.7
20260503210059 78 271 0.9 3.5 0.00 0.00 0.00 39 1017.9
20260503210006 78 271 1.7 3.5 0.00 0.00 0.00 37 1018.0
20260503210002 78 271 1.7 3.5 0.00 0.00 0.00 37 1018.0
20260503205005 77 12 1.7 5.2 0.00 0.00 0.00 38 1018.1
20260503204601 77 12 1.7 5.2 0.00 0.00 0.00 37 1018.2
20260503203115 77 225 0.0 3.5 0.00 0.00 0.00 39 1018.3
20260503203005 77 225 1.7 3.5 0.00 0.00 0.00 38 1018.4
20260503202005 77 342 1.7 3.5 0.00 0.00 0.00 38 1018.7
20260503201601 77 347 1.7 3.5 0.00 0.00 0.00 36 1018.7
20260503201501 77 331 1.7 3.5 0.00 0.00 0.00 38 1018.7
20260503201004 77 317 1.7 3.5 0.00 0.00 0.00 41 1018.8
20260503200101 78 221 1.7 7.8 0.00 0.00 0.00 42 1018.9
20260503200005 78 221 1.7 7.8 0.00 0.00 0.00 39 1019.0
20260503195003 78 116 1.7 5.2 0.00 0.00 0.00 39 1019.2
20260503194603 79 113 0.9 5.2 0.00 0.00 0.00 36 1019.2
20260503194004 78 22 1.7 3.5 0.00 0.00 0.00 37 1019.3
20260503193100 78 5 1.7 5.2 0.00 0.00 0.00 39 1019.3
20260503193005 78 329 0.9 6.1 0.00 0.00 0.00 37 1019.3
20260503192004 77 86 1.7 6.1 0.00 0.00 0.00 39 1019.4
20260503191600 77 87 1.7 6.1 0.00 0.00 0.00 38 1019.5
20260503191003 77 102 1.7 4.3 0.00 0.00 0.00 37 1019.6
20260503190100 76 30 1.7 5.2 0.00 0.00 0.00 38 1019.9
20260503190006 76 48 1.7 5.2 0.00 0.00 0.00 40 1019.9
20260503190002 76 48 0.9 5.2 0.00 0.00 0.00 40 1019.9
20260503185004 77 321 1.7 4.3 0.00 0.00 0.00 37 1019.9
20260503184624 77 338 0.9 5.2 0.00 0.00 0.00 40 1020.0
20260503184501 78 26 0.9 5.2 0.00 0.00 0.00 38 1019.9
20260503184005 78 32 1.7 5.2 0.00 0.00 0.00 37 1020.0
20260503183104 77 148 0.9 7.0 0.00 0.00 0.00 37 1020.3
20260503183005 77 148 3.5 7.0 0.00 0.00 0.00 35 1020.3
20260503182006 77 16 2.6 5.2 0.00 0.00 0.00 34 1020.5
20260503181601 77 40 2.6 5.2 0.00 0.00 0.00 36 1020.5
20260503181005 75 84 1.7 3.5 0.00 0.00 0.00 37 1020.6
20260503180101 75 325 1.7 4.3 0.00 0.00 0.00 38 1020.7
20260503180006 75 49 1.7 4.3 0.00 0.00 0.00 39 1020.7
20260503180001 75 49 1.7 4.3 0.00 0.00 0.00 39 1020.7
20260503175004 75 31 1.7 4.3 0.00 0.00 0.00 41 1020.8
20260503174601 75 34 0.9 6.1 0.00 0.00 0.00 40 1020.8
20260503173101 74 13 0.9 2.6 0.00 0.00 0.00 39 1021.0
20260503173005 74 13 1.7 2.6 0.00 0.00 0.00 40 1021.0
20260503171613 73 215 0.9 6.1 0.00 0.00 0.00 38 1021.1
20260503171004 74 39 1.7 6.1 0.00 0.00 0.00 38 1021.2
20260503170107 73 303 0.9 3.5 0.00 0.00 0.00 39 1021.2
20260503131005 54 302 0.0 0.9 0.00 0.00 0.00 92 1021.0
20260503090120 46 283 0.0 0.0 0.00 0.00 0.00 93 1019.3
20260503081602 47 283 0.0 1.7 0.00 0.00 0.00 93 1019.1
20260503081004 47 283 0.0 1.7 0.00 0.00 0.00 93 1019.1
20260503080110 47 283 0.0 1.7 0.00 0.00 0.00 92 1019.0
20260503071612 48 283 0.0 0.0 0.00 0.00 0.00 90 1018.7
20260503071004 49 283 0.0 0.0 0.00 0.00 0.00 90 1018.7
20260503060103 51 283 0.0 0.0 0.00 0.00 0.00 88 1018.5
20260503055005 51 283 0.0 0.0 0.00 0.00 0.00 89 1018.5
20260503054607 51 283 0.0 0.0 0.00 0.00 0.00 89 1018.5
20260503054004 51 283 0.0 0.0 0.00 0.00 0.00 87 1018.5
20260503053100 51 283 0.0 0.0 0.00 0.00 0.00 87 1018.4
20260503053006 51 283 0.0 0.0 0.00 0.00 0.00 88 1018.4
20260503052004 52 283 0.0 0.0 0.00 0.00 0.00 88 1018.3
20260503051600 52 283 0.0 0.0 0.00 0.00 0.00 87 1018.3
20260503050100 52 283 0.0 0.0 0.00 0.00 0.00 87 1018.3
20260503050008 52 283 0.0 0.0 0.00 0.00 0.00 87 1018.2
20260503050005 52 283 0.0 0.0 0.00 0.00 0.00 87 1018.2
20260503045005 53 283 0.0 0.0 0.00 0.00 0.00 86 1018.4
20260503044503 53 283 0.0 0.0 0.00 0.00 0.00 85 1018.4
20260503044004 53 283 0.0 0.0 0.00 0.00 0.00 84 1018.4
20260503043006 53 283 0.0 0.0 0.00 0.00 0.00 86 1018.3
20260503043001 53 283 0.0 0.0 0.00 0.00 0.00 86 1018.3
20260503042005 53 283 0.0 0.0 0.00 0.00 0.00 84 1018.3
20260503041607 54 283 0.0 0.0 0.00 0.00 0.00 84 1018.3
20260503041005 54 283 0.0 0.0 0.00 0.00 0.00 86 1018.3
20260503040100 54 283 0.0 0.0 0.00 0.00 0.00 86 1018.2
20260503040007 54 283 0.0 0.0 0.00 0.00 0.00 86 1018.1
20260503040003 54 283 0.0 0.0 0.00 0.00 0.00 86 1018.1
20260503035004 54 283 0.0 0.0 0.00 0.00 0.00 86 1018.0
20260503034502 54 283 0.0 0.0 0.00 0.00 0.00 84 1018.0
20260503034005 54 283 0.0 0.0 0.00 0.00 0.00 85 1018.0
20260503033007 54 283 0.0 0.0 0.00 0.00 0.00 86 1017.9
20260503033001 54 283 0.0 0.0 0.00 0.00 0.00 86 1017.9
20260503031501 55 283 0.0 0.0 0.00 0.00 0.00 85 1017.7
20260503031004 55 283 0.0 0.0 0.00 0.00 0.00 85 1017.7
20260503030004 55 283 0.0 0.0 0.00 0.00 0.00 85 1017.6
20260503024501 55 283 0.0 0.0 0.00 0.00 0.00 85 1017.5
20260503024004 55 283 0.0 0.0 0.00 0.00 0.00 84 1017.5